User: anonymous   Login
Location: Ballingbuur
(53.0000°N, 5.7667°E)
Time: 16:45:02
(UTC+00:00)
Language:

FENGYUN 1C DEB - Orbit

View from above orbital plane
View from above orbital plane
View from above satellite
View from above satellite

Ground track
Ground track

The orbit data is extracted from the following two-line orbital elements,

1 30135U 99025SQ  21175.09138421  .00001374  00000-0  43240-3 0  9992
2 30135  98.9746 359.7625 0133285 275.5532 205.9051 14.37242135752069
Epoch (UTC): 24 June 2021 02:11:35
Eccentricity: 0.0133285
inclination: 98.9746°
perigee height: 672 km
apogee height: 863 km
right ascension of ascending node: 359.7625°
argument of perigee: 275.5532°
revolutions per day: 14.37242135
mean anomaly at epoch: 205.9051°
orbit number at epoch: 75206

The dashed part of the orbit path shows where the satellite is in the earth's shadow,  

DLR